Weather in Aleshniki

Russia / Volgograd Oblast     50°53′55″N   45°10′10″E
temp.,
°C
wind,
m/s
gust,
m/s
humid.,
%
clouds,
%
prec.,
mm/h
press.,
hPa
HPBL,
m
3 march, wed
wed300:000w61098100 0.8 1007481
03:00−1wnw4997100 1.1 1007400
06:00−2nw479696 0.1 1007253
09:00−3nw599591 0.2 1009418
12:00−2nw689291 0.1 1010654
15:00−2nw7108596 0.2 1012917
18:00−6nw5129225 0.0 1014324
21:00−8wnw4109756 0.1 1016229
4 march, thu
thu400:00−10w499789 0.0 1016146
03:00−9wsw5119784 0.1 1016214
06:00−6wsw81694100 0.1 1014469
09:00−2w91494100 0.5 10131052
12:00−1wsw10159399 0.1 1011800
15:000wsw9178999 0.2 1011718
18:000wsw8188311 0.0 1009651
21:00−1sw920815 0.0 1008581
5 march, fri
fri500:00−1sw9188417 0.0 1007523
03:000sw9178941 0.0 1006626
06:00+1wsw91799100 0.1 1005703
09:00+1wsw916100100 1.1 1005625
12:00+1w815100100 0.6 1006698
15:00+1w71398100 0.6 1008741
18:00−1wnw3795100 0.1 1010196
21:00−3ne1295100 0.1 101321
6 march, sat
sat600:00−3ene3597100 0.6 1012144
03:00−4ene5997100 2.6 1010311
06:00−5ene71196100 4.7 1009398
09:00−5nne6995100 6.8 1009399
12:00−3nnw689398 0.3 1011562
15:00−4nnw698699 0.4 1013676
18:00−9nw479382 0.0 1014117
21:00−12nw349358 0.0 101753
7 march, sun
sun700:00−13wnw44929 0.0 101765
03:00−13wnw349612 0.0 101860
06:00−15w33940 0.0 101929
09:00−11sw47940 0.0 1019204
12:00−6sw7129042 0.0 1017742
15:00−3wsw8148071 0.1 10141213
18:00−5sw6168259 0.0 1012616
21:00−4sw9197076 0.0 1011666